Location: Harwich
(41.6860°N, 70.0760°W)
Time: 08:22:18
(UTC-05:00)

Cosmos 2228 - Visible Passes

Search period start: 28 November 2014 00:00
Search period end: 08 December 2014 00:00
Orbit: 595 x 624 km, 82.5° (Epoch: 27 November)

Date Brightness Start Highest point End Pass type
(mag) Time Alt. Az. Time Alt. Az. Time Alt. Az.
28 Nov 4.4 17:00:43 10° NNE 17:03:52 19° ENE 17:07:00 10° ESE visible
28 Nov 4.5 18:37:34 10° NNW 18:41:40 38° W 18:45:45 10° SSW visible
29 Nov 6.5 05:33:27 10° E 05:34:19 11° E 05:35:11 10° ENE visible
29 Nov 3.8 17:14:26 10° NNE 17:18:23 31° ENE 17:22:19 10° SE visible
29 Nov 5.4 18:52:26 10° NW 18:55:51 22° W 18:59:17 10° SW visible
30 Nov 5.9 05:45:25 10° SE 05:48:24 19° E 05:51:23 10° NE visible
30 Nov 3.1 17:28:29 10° N 17:32:50 53° E 17:37:09 10° SSE visible
30 Nov 6.2 19:07:54 10° NW 19:09:58 13° W 19:12:02 10° WSW visible
01 Dec 5.1 05:58:45 10° SSE 06:02:33 31° E 06:06:24 10° NNE visible
01 Dec 3.0 17:42:44 10° N 17:47:11 86° W 17:51:36 10° S visible
02 Dec 3.9 06:12:34 10° S 06:16:46 56° E 06:21:02 10° NNE visible
02 Dec 4.0 17:57:12 10° NNW 18:01:28 49° W 18:05:43 10° SSW visible
03 Dec 5.1 18:11:54 10° NNW 18:15:40 28° W 18:19:26 10° SSW visible
04 Dec 6.1 05:05:49 10° ESE 05:08:13 15° E 05:10:38 10° NE visible
04 Dec 3.5 16:48:18 10° N 16:52:31 42° ENE 16:56:42 10° SSE visible
04 Dec 6.0 18:27:00 10° NW 18:29:48 17° W 18:32:36 10° SW visible
05 Dec 5.4 05:18:48 10° SE 05:22:19 25° E 05:25:53 10° NE visible
05 Dec 3.0 17:02:28 10° N 17:06:54 74° E 17:11:18 10° SSE visible
06 Dec 4.3 05:32:25 10° SSE 05:36:30 43° E 05:40:39 10° NNE visible
06 Dec 3.6 17:16:49 10° NNW 17:21:12 63° W 17:25:33 10° S visible
07 Dec 3.2 05:46:26 10° S 05:50:45 78° E 05:55:08 10° N visible
07 Dec 4.8 17:31:23 10° NNW 17:35:26 35° W 17:39:26 10° SSW visible
